Humidity-temperature Sensor

Selected Measurement Type: Air Temperature

 
Air Temperature [°C]     6 entries per hour
Showing data from 5/5/2015 (00:00:00 Z) to 5/2/2015 (16:20:00 Z)
Previous Next [ Day | 3-Days | 7-Days ]
First Last
Prev [ Day | 3-Days | 7-Days ] Next
First Last

Start Time:     :
End Time:     :     
Time (in GMT) :00 :50 :40 :30 :20 :10
Previous Next [ Day | 3-Days | 7-Days ]
First Last
Prev [ Day | 3-Days | 7-Days ] Next
First Last


123 => good data
MM => data is determined as missing
-- => data not received/configured
Back to Top Back to Top
5/5/2015 00:00 to 23:10 26.66 26.59 26.45 26.51 26.84 26.77
5/4/2015 23:00 to 22:10 26.87 26.98 27.11 27.02 26.94 27.16
5/4/2015 22:00 to 21:10 27.08 27.06 27.14 27.16 27.07 26.88
5/4/2015 21:00 to 20:10 27.37 28.00 27.67 27.68 27.92 28.41
5/4/2015 20:00 to 19:10 28.58 28.34 28.52 28.56 28.37 28.24
5/4/2015 19:00 to 18:10 28.39 28.33 28.22 28.12 28.00 27.87
5/4/2015 18:00 to 17:10 -- -- -- -- -- --
5/4/2015 17:00 to 16:10 27.77 27.65 27.73 27.38 27.16 27.01
5/4/2015 16:00 to 15:10 26.37 26.18 25.95 26.00 25.80 25.72
5/4/2015 15:00 to 14:10 25.48 25.27 25.18 25.25 25.46 25.28
5/4/2015 14:00 to 13:10 25.16 25.32 25.45 25.49 25.58 25.49
5/4/2015 13:00 to 12:10 25.73 25.85 25.60 25.84 26.20 26.64
5/4/2015 12:00 to 11:10 26.85 27.64 27.59 27.41 27.26 27.55
5/4/2015 11:00 to 10:10 27.81 27.85 27.41 27.18 27.44 27.34
5/4/2015 10:00 to 9:10 27.65 27.29 27.08 27.14 27.18 26.58
5/4/2015 09:00 to 8:10 26.68 26.53 26.69 26.58 26.74 27.09
5/4/2015 08:00 to 7:10 27.35 27.77 27.57 28.09 27.90 28.22
5/4/2015 07:00 to 6:10 28.57 28.57 28.56 28.60 28.68 28.61
5/4/2015 06:00 to 5:10 28.60 28.64 28.55 28.65 28.51 28.27
5/4/2015 05:00 to 4:10 28.15 28.09 27.93 27.90 27.74 27.96
5/4/2015 04:00 to 3:10 27.78 27.26 27.34 27.27 27.95 28.04
5/4/2015 03:00 to 2:10 28.64 28.58 28.65 28.59 28.73 28.80
5/4/2015 02:00 to 1:10 28.86 28.95 28.95 28.85 28.90 28.84
5/4/2015 01:00 to 0:10 28.77 28.74 28.81 28.79 29.22 29.20
5/4/2015 00:00 to 23:10 29.45 29.47 29.14 28.88 28.85 28.86
5/3/2015 23:00 to 22:10 28.67 28.65 28.71 28.75 28.40 27.85
5/3/2015 22:00 to 21:10 27.85 27.91 27.95 27.56 27.31 27.21
5/3/2015 21:00 to 20:10 27.62 27.90 27.91 28.37 28.87 28.92
5/3/2015 20:00 to 19:10 28.87 28.87 28.85 28.88 28.84 28.83
5/3/2015 19:00 to 18:10 28.83 28.78 28.97 28.83 28.85 28.84
5/3/2015 18:00 to 17:10 28.83 28.82 28.75 28.70 28.73 28.69
5/3/2015 17:00 to 16:10 28.76 28.72 28.64 28.61 28.47 28.44
5/3/2015 16:00 to 15:10 28.56 28.54 28.55 28.27 28.27 28.26
5/3/2015 15:00 to 14:10 28.28 28.30 28.30 28.29 28.33 28.42
5/3/2015 14:00 to 13:10 28.53 28.24 28.03 28.01 28.04 28.03
5/3/2015 13:00 to 12:10 27.95 27.94 27.93 27.97 27.98 27.97
5/3/2015 12:00 to 11:10 27.94 28.04 27.98 28.04 27.95 28.00
5/3/2015 11:00 to 10:10 27.97 27.95 27.96 27.89 27.88 27.87
5/3/2015 10:00 to 9:10 27.87 27.82 27.84 27.77 27.82 27.76
5/3/2015 09:00 to 8:10 -- -- -- -- -- --
5/3/2015 08:00 to 7:10 27.76 27.67 27.72 27.84 27.82 28.20
5/3/2015 07:00 to 6:10 28.11 28.11 28.08 28.10 28.07 28.07
5/3/2015 06:00 to 5:10 28.10 28.05 28.09 28.09 28.15 28.11
5/3/2015 05:00 to 4:10 28.13 28.11 28.12 28.14 28.22 28.09
5/3/2015 04:00 to 3:10 28.19 28.03 28.09 28.00 28.09 28.10
5/3/2015 03:00 to 2:10 28.04 27.97 27.99 27.88 27.83 27.74
5/3/2015 02:00 to 1:10 27.63 27.55 27.28 27.66 28.45 28.33
5/3/2015 01:00 to 0:10 28.39 28.53 28.76 28.88 28.58 28.62
5/3/2015 00:00 to 23:10 28.92 28.92 28.62 28.48 28.48 28.48
5/2/2015 23:00 to 22:10 28.29 28.32 28.43 28.36 28.68 28.77
5/2/2015 22:00 to 21:10 28.62 28.32 28.20 27.81 27.94 28.02
5/2/2015 21:00 to 20:10 28.03 27.95 27.67 27.55 27.43 27.30
5/2/2015 20:00 to 19:10 27.21 27.41 27.52 27.71 27.74 28.20
5/2/2015 19:00 to 18:10 28.14 28.53 28.54 28.92 29.21 28.84
5/2/2015 18:00 to 17:10 28.87 28.74 28.65 28.59 28.71 28.64
5/2/2015 17:00 to 16:10 28.61 28.53 28.54 28.55 28.59 --